| time (UTC) | temp F | wind direction | speed knots | gust knots | rain 1hr in | rain 24hr in | rain mn in | humidity % | barometer mb |
| 20260508151533 | 65 | 272 | 3.5 | 9.6 | 0.00 | 0.00 | 0.00 | 45 | 1015.7 |
| 20260508151031 | 65 | 279 | 3.5 | 7.0 | 0.00 | 0.00 | 0.00 | 45 | 1015.7 |
| 20260508150532 | 65 | 311 | 4.3 | 7.8 | 0.00 | 0.00 | 0.00 | 46 | 1015.7 |
| 20260508150027 | 64 | 247 | 3.5 | 12.2 | 0.00 | 0.00 | 0.00 | 45 | 1015.8 |
| 20260508145529 | 64 | 269 | 4.3 | 12.2 | 0.00 | 0.00 | 0.00 | 45 | 1015.8 |
| 20260508145026 | 64 | 246 | 4.3 | 7.8 | 0.00 | 0.00 | 0.00 | 46 | 1015.8 |
| 20260508144524 | 64 | 217 | 5.2 | 8.7 | 0.00 | 0.00 | 0.00 | 45 | 1015.8 |
| 20260508144022 | 63 | 219 | 4.3 | 8.7 | 0.00 | 0.00 | 0.00 | 46 | 1015.8 |
| 20260508143524 | 63 | 246 | 4.3 | 9.6 | 0.00 | 0.00 | 0.00 | 47 | 1015.7 |
| 20260508143019 | 62 | 239 | 5.2 | 9.6 | 0.00 | 0.00 | 0.00 | 48 | 1015.8 |
| 20260508142518 | 62 | 235 | 5.2 | 8.7 | 0.00 | 0.00 | 0.00 | 48 | 1015.8 |
| 20260508142017 | 62 | 240 | 5.2 | 8.7 | 0.00 | 0.00 | 0.00 | 49 | 1015.9 |
| 20260508141512 | 61 | 261 | 3.5 | 7.8 | 0.00 | 0.00 | 0.00 | 51 | 1015.9 |
| 20260508141012 | 61 | 244 | 3.5 | 7.8 | 0.00 | 0.00 | 0.00 | 51 | 1015.9 |
| 20260508140510 | 60 | 226 | 2.6 | 7.8 | 0.00 | 0.00 | 0.00 | 51 | 1016.0 |
| 20260508140008 | 60 | 251 | 1.7 | 8.7 | 0.00 | 0.00 | 0.00 | 53 | 1015.9 |
| 20260508135509 | 59 | 221 | 4.3 | 8.7 | 0.00 | 0.00 | 0.00 | 53 | 1016.0 |
| 20260508135005 | 59 | 315 | 1.7 | 7.0 | 0.00 | 0.00 | 0.00 | 54 | 1016.0 |
| 20260508134505 | 58 | 271 | 2.6 | 8.7 | 0.00 | 0.00 | 0.00 | 55 | 1016.1 |
| 20260508134003 | 58 | 234 | 3.5 | 7.8 | 0.00 | 0.00 | 0.00 | 56 | 1016.1 |
| 20260508133504 | 57 | 223 | 2.6 | 9.6 | 0.00 | 0.00 | 0.00 | 58 | 1016.1 |
| 20260508133112 | 56 | 244 | 4.3 | 9.6 | 0.00 | 0.00 | 0.00 | 59 | 1016.0 |
| 20260508132558 | 56 | 259 | 4.3 | 6.1 | 0.00 | 0.00 | 0.00 | 62 | 1016.1 |
| 20260508132058 | 54 | 328 | 1.7 | 6.1 | 0.00 | 0.00 | 0.00 | 66 | 1016.1 |
| 20260508131558 | 53 | 248 | 1.7 | 6.1 | 0.00 | 0.00 | 0.00 | 68 | 1016.0 |
| 20260508131051 | 52 | 92 | 0.9 | 3.5 | 0.00 | 0.00 | 0.00 | 72 | 1016.1 |
| 20260508130549 | 52 | 86 | 0.9 | 3.5 | 0.00 | 0.00 | 0.00 | 74 | 1016.1 |
| 20260508130106 | 51 | 5 | 0.9 | 3.5 | 0.00 | 0.00 | 0.00 | 75 | 1016.2 |
| 20260508125547 | 50 | 5 | 0.9 | 3.5 | 0.00 | 0.00 | 0.00 | 76 | 1016.2 |
| 20260508125045 | 49 | 347 | 0.9 | 3.5 | 0.00 | 0.00 | 0.00 | 79 | 1016.2 |
| 20260508124543 | 49 | 323 | 0.0 | 3.5 | 0.00 | 0.00 | 0.00 | 80 | 1016.2 |
| 20260508124042 | 48 | 323 | 0.0 | 5.2 | 0.00 | 0.00 | 0.00 | 82 | 1016.3 |
| 20260508123543 | 48 | 332 | 1.7 | 5.2 | 0.00 | 0.00 | 0.00 | 84 | 1016.3 |
| 20260508123040 | 47 | 61 | 0.9 | 4.3 | 0.00 | 0.00 | 0.00 | 86 | 1016.2 |
| 20260508122538 | 47 | 291 | 0.0 | 4.3 | 0.00 | 0.00 | 0.00 | 87 | 1016.2 |
| 20260508122036 | 46 | 290 | 1.7 | 4.3 | 0.00 | 0.00 | 0.00 | 89 | 1016.2 |
| 20260508121536 | 45 | 266 | 0.0 | 0.0 | 0.00 | 0.00 | 0.00 | 89 | 1016.1 |
| 20260508121032 | 45 | 247 | 0.0 | 0.0 | 0.00 | 0.00 | 0.00 | 90 | 1016.1 |
| 20260508120529 | 44 | 246 | 0.0 | 0.0 | 0.00 | 0.00 | 0.00 | 91 | 1016.2 |
| 20260508120028 | 44 | 246 | 0.0 | 0.0 | 0.00 | 0.00 | 0.00 | 91 | 1016.2 |
| 20260508115528 | 43 | 229 | 0.0 | 0.0 | 0.00 | 0.00 | 0.00 | 92 | 1016.1 |
| 20260508115025 | 43 | 229 | 0.0 | 0.0 | 0.00 | 0.00 | 0.00 | 91 | 1016.1 |
| 20260508114524 | 43 | 229 | 0.0 | 0.0 | 0.00 | 0.00 | 0.00 | 92 | 1015.9 |
| 20260508114023 | 42 | 228 | 0.0 | 0.0 | 0.00 | 0.00 | 0.00 | 92 | 1016.0 |
| 20260508113522 | 42 | 228 | 0.0 | 0.0 | 0.00 | 0.00 | 0.00 | 92 | 1016.1 |
| 20260508113021 | 42 | 228 | 0.0 | 0.0 | 0.00 | 0.00 | 0.00 | 92 | 1016.1 |
| 20260508112518 | 42 | 228 | 0.0 | 0.0 | 0.00 | 0.00 | 0.00 | 92 | 1016.1 |
| 20260508112018 | 41 | 228 | 0.0 | 0.0 | 0.00 | 0.00 | 0.00 | 91 | 1016.0 |
| 20260508111520 | 41 | 228 | 0.0 | 0.0 | 0.00 | 0.00 | 0.00 | 92 | 1016.0 |
| 20260508111047 | 40 | 228 | 0.0 | 0.0 | 0.00 | 0.00 | 0.00 | 91 | 1015.9 |
| 20260508110543 | 40 | 228 | 0.0 | 0.0 | 0.00 | 0.00 | 0.00 | 91 | 1015.9 |
| 20260508110042 | 40 | 228 | 0.0 | 0.0 | 0.00 | 0.00 | 0.00 | 91 | 1015.9 |
| 20260508105541 | 40 | 228 | 0.0 | 0.0 | 0.00 | 0.00 | 0.00 | 91 | 1015.9 |
| 20260508105041 | 40 | 228 | 0.0 | 0.0 | 0.00 | 0.00 | 0.00 | 91 | 1015.8 |
| 20260508104603 | 40 | 228 | 0.0 | 0.0 | 0.00 | 0.00 | 0.00 | 90 | 1015.7 |
| 20260508104035 | 40 | 228 | 0.0 | 0.0 | 0.00 | 0.00 | 0.00 | 90 | 1015.6 |
| 20260508103534 | 40 | 228 | 0.0 | 0.0 | 0.00 | 0.00 | 0.00 | 90 | 1015.6 |
| 20260508103043 | 40 | 228 | 0.0 | 0.0 | 0.00 | 0.00 | 0.00 | 90 | 1015.6 |
| 20260508102533 | 40 | 228 | 0.0 | 0.0 | 0.00 | 0.00 | 0.00 | 90 | 1015.6 |
| 20260508102032 | 40 | 271 | 0.0 | 0.0 | 0.00 | 0.00 | 0.00 | 90 | 1015.5 |
| 20260508101532 | 40 | 272 | 0.0 | 0.0 | 0.00 | 0.00 | 0.00 | 90 | 1015.5 |
| 20260508101030 | 40 | 273 | 0.0 | 0.0 | 0.00 | 0.00 | 0.00 | 90 | 1015.5 |
| 20260508100530 | 40 | 273 | 0.0 | 0.0 | 0.00 | 0.00 | 0.00 | 90 | 1015.4 |
| 20260508100030 | 40 | 273 | 0.0 | 0.0 | 0.00 | 0.00 | 0.00 | 89 | 1015.4 |
| 20260508095529 | 40 | 273 | 0.0 | 0.0 | 0.00 | 0.00 | 0.00 | 89 | 1015.3 |
| 20260508095029 | 40 | 273 | 0.0 | 0.0 | 0.00 | 0.00 | 0.00 | 89 | 1015.3 |
| 20260508094528 | 40 | 273 | 0.0 | 0.0 | 0.00 | 0.00 | 0.00 | 89 | 1015.4 |
| 20260508094027 | 40 | 273 | 0.0 | 0.0 | 0.00 | 0.00 | 0.00 | 89 | 1015.3 |
| 20260508093527 | 40 | 273 | 0.0 | 0.0 | 0.00 | 0.00 | 0.00 | 88 | 1015.3 |
| 20260508093026 | 40 | 273 | 0.0 | 0.0 | 0.00 | 0.00 | 0.00 | 88 | 1015.3 |
| 20260508092526 | 40 | 273 | 0.0 | 0.0 | 0.00 | 0.00 | 0.00 | 88 | 1015.2 |
| 20260508092025 | 40 | 273 | 0.0 | 0.0 | 0.00 | 0.00 | 0.00 | 88 | 1015.3 |
| 20260508091524 | 40 | 273 | 0.0 | 0.0 | 0.00 | 0.00 | 0.00 | 87 | 1015.3 |
| 20260508091024 | 40 | 273 | 0.0 | 0.0 | 0.00 | 0.00 | 0.00 | 87 | 1015.3 |
| 20260508090523 | 40 | 273 | 0.0 | 0.0 | 0.00 | 0.00 | 0.00 | 87 | 1015.2 |
| 20260508090023 | 41 | 273 | 0.0 | 0.0 | 0.00 | 0.00 | 0.00 | 87 | 1015.1 |
| 20260508085521 | 41 | 273 | 0.0 | 0.0 | 0.00 | 0.00 | 0.00 | 87 | 1015.1 |
| 20260508085021 | 41 | 273 | 0.0 | 0.0 | 0.00 | 0.00 | 0.00 | 87 | 1015.1 |
| 20260508084521 | 41 | 273 | 0.0 | 0.0 | 0.00 | 0.00 | 0.00 | 86 | 1015.1 |
| 20260508084120 | 41 | 273 | 0.0 | 0.0 | 0.00 | 0.00 | 0.00 | 86 | 1015.1 |
| 20260508083550 | 41 | 273 | 0.0 | 0.0 | 0.00 | 0.00 | 0.00 | 86 | 1015.1 |
| 20260508083105 | 41 | 273 | 0.0 | 0.0 | 0.00 | 0.00 | 0.00 | 86 | 1015.1 |
| 20260508082549 | 41 | 273 | 0.0 | 0.0 | 0.00 | 0.00 | 0.00 | 86 | 1015.0 |
| 20260508082049 | 41 | 273 | 0.0 | 0.0 | 0.00 | 0.00 | 0.00 | 85 | 1015.0 |
| 20260508081556 | 42 | 273 | 0.0 | 0.0 | 0.00 | 0.00 | 0.00 | 85 | 1014.9 |
| 20260508081050 | 42 | 273 | 0.0 | 0.0 | 0.00 | 0.00 | 0.00 | 84 | 1015.0 |
| 20260508080545 | 42 | 273 | 0.0 | 0.0 | 0.00 | 0.00 | 0.00 | 84 | 1015.0 |
| 20260508080044 | 42 | 273 | 0.0 | 0.0 | 0.00 | 0.00 | 0.00 | 84 | 1015.0 |
| 20260508075544 | 42 | 273 | 0.0 | 0.0 | 0.00 | 0.00 | 0.00 | 84 | 1015.0 |
| 20260508075044 | 42 | 273 | 0.0 | 0.0 | 0.00 | 0.00 | 0.00 | 84 | 1015.0 |
| 20260508074545 | 43 | 273 | 0.0 | 0.0 | 0.00 | 0.00 | 0.00 | 84 | 1015.0 |
| 20260508074043 | 43 | 273 | 0.0 | 0.0 | 0.00 | 0.00 | 0.00 | 84 | 1015.0 |
| 20260508073543 | 43 | 273 | 0.0 | 0.0 | 0.00 | 0.00 | 0.00 | 84 | 1015.0 |
| 20260508073043 | 43 | 319 | 0.0 | 0.0 | 0.00 | 0.00 | 0.00 | 84 | 1015.0 |
| 20260508072542 | 43 | 319 | 0.0 | 0.0 | 0.00 | 0.00 | 0.00 | 84 | 1015.0 |
| 20260508072042 | 43 | 319 | 0.0 | 0.0 | 0.00 | 0.00 | 0.00 | 84 | 1015.0 |
| 20260508071542 | 43 | 319 | 0.0 | 0.0 | 0.00 | 0.00 | 0.00 | 84 | 1014.9 |
| 20260508071041 | 43 | 319 | 0.0 | 0.0 | 0.00 | 0.00 | 0.00 | 84 | 1014.9 |
| 20260508070510 | 43 | 319 | 0.0 | 0.0 | 0.00 | 0.00 | 0.00 | 83 | 1014.9 |
| 20260508070019 | 43 | 319 | 0.0 | 0.0 | 0.00 | 0.00 | 0.00 | 83 | 1014.9 |
| 20260508065510 | 43 | 319 | 0.0 | 0.0 | 0.00 | 0.00 | 0.00 | 83 | 1014.8 |
| 20260508065009 | 43 | 319 | 0.0 | 0.0 | 0.00 | 0.00 | 0.00 | 83 | 1014.8 |
| 20260508064509 | 43 | 319 | 0.0 | 0.0 | 0.00 | 0.00 | 0.00 | 83 | 1014.9 |
| 20260508064013 | 43 | 319 | 0.0 | 0.0 | 0.00 | 0.00 | 0.00 | 83 | 1014.9 |
| 20260508063541 | 43 | 319 | 0.0 | 0.0 | 0.00 | 0.00 | 0.00 | 82 | 1015.0 |
| 20260508063041 | 44 | 319 | 0.0 | 0.0 | 0.00 | 0.00 | 0.00 | 82 | 1015.0 |
| 20260508062539 | 44 | 319 | 0.0 | 0.0 | 0.00 | 0.00 | 0.00 | 82 | 1015.0 |
| 20260508062039 | 44 | 319 | 0.0 | 0.0 | 0.00 | 0.00 | 0.00 | 82 | 1015.1 |
| 20260508061544 | 44 | 319 | 0.0 | 0.0 | 0.00 | 0.00 | 0.00 | 82 | 1015.1 |
| 20260508061039 | 44 | 319 | 0.0 | 0.0 | 0.00 | 0.00 | 0.00 | 81 | 1015.1 |
| 20260508060535 | 44 | 319 | 0.0 | 0.0 | 0.00 | 0.00 | 0.00 | 81 | 1015.1 |
| 20260508060035 | 44 | 319 | 0.0 | 0.0 | 0.00 | 0.00 | 0.00 | 81 | 1015.1 |
| 20260508055533 | 44 | 319 | 0.0 | 0.0 | 0.00 | 0.00 | 0.00 | 81 | 1015.1 |
| 20260508055033 | 44 | 319 | 0.0 | 0.0 | 0.00 | 0.00 | 0.00 | 80 | 1015.1 |
| 20260508054532 | 44 | 319 | 0.0 | 0.0 | 0.00 | 0.00 | 0.00 | 80 | 1015.0 |
| 20260508054031 | 45 | 319 | 0.0 | 0.0 | 0.00 | 0.00 | 0.00 | 79 | 1015.1 |
| 20260508053531 | 45 | 319 | 0.0 | 0.0 | 0.00 | 0.00 | 0.00 | 79 | 1015.1 |
| 20260508053030 | 45 | 319 | 0.0 | 0.0 | 0.00 | 0.00 | 0.00 | 79 | 1015.0 |
| 20260508052530 | 45 | 319 | 0.0 | 0.0 | 0.00 | 0.00 | 0.00 | 79 | 1015.0 |
| 20260508052029 | 45 | 319 | 0.0 | 0.0 | 0.00 | 0.00 | 0.00 | 79 | 1014.9 |
| 20260508051528 | 46 | 322 | 0.0 | 0.0 | 0.00 | 0.00 | 0.00 | 77 | 1014.9 |
| 20260508051027 | 46 | 323 | 0.0 | 0.0 | 0.00 | 0.00 | 0.00 | 77 | 1014.9 |
| 20260508050527 | 46 | 323 | 0.0 | 0.0 | 0.00 | 0.00 | 0.00 | 77 | 1014.9 |
| 20260508050023 | 46 | 323 | 0.0 | 0.0 | 0.00 | 0.00 | 0.00 | 76 | 1014.8 |
| 20260508045522 | 47 | 323 | 0.0 | 0.0 | 0.00 | 0.00 | 0.00 | 76 | 1014.9 |
| 20260508045021 | 47 | 340 | 0.0 | 0.0 | 0.00 | 0.00 | 0.00 | 76 | 1014.9 |
| 20260508044521 | 47 | 340 | 0.0 | 0.0 | 0.00 | 0.00 | 0.00 | 75 | 1014.9 |
| 20260508044021 | 47 | 340 | 0.0 | 0.0 | 0.00 | 0.00 | 0.00 | 74 | 1015.0 |
| 20260508043520 | 47 | 340 | 0.0 | 0.0 | 0.00 | 0.00 | 0.00 | 74 | 1015.0 |
| 20260508043036 | 47 | 340 | 0.0 | 0.0 | 0.00 | 0.00 | 0.00 | 74 | 1015.0 |
| 20260508042519 | 47 | 340 | 0.0 | 0.0 | 0.00 | 0.00 | 0.00 | 74 | 1015.0 |
| 20260508042017 | 48 | 340 | 0.0 | 0.0 | 0.00 | 0.00 | 0.00 | 75 | 1014.9 |
| 20260508041518 | 48 | 340 | 0.0 | 0.0 | 0.00 | 0.00 | 0.00 | 75 | 1014.9 |
| 20260508041017 | 48 | 340 | 0.0 | 0.0 | 0.00 | 0.00 | 0.00 | 74 | 1014.9 |
| 20260508040513 | 48 | 340 | 0.0 | 0.9 | 0.00 | 0.00 | 0.00 | 74 | 1014.9 |
| 20260508040020 | 48 | 340 | 0.0 | 0.9 | 0.00 | 0.00 | 0.00 | 73 | 1014.9 |
| 20260508035514 | 49 | 340 | 0.0 | 0.0 | 0.00 | 0.00 | 0.00 | 73 | 1014.9 |
| 20260508035012 | 49 | 340 | 0.0 | 3.5 | 0.00 | 0.00 | 0.00 | 73 | 1014.9 |
| 20260508034514 | 49 | 340 | 0.0 | 3.5 | 0.00 | 0.00 | 0.00 | 72 | 1015.0 |
| 20260508034014 | 49 | 341 | 0.9 | 2.6 | 0.00 | 0.00 | 0.00 | 72 | 1014.9 |
| 20260508033514 | 49 | 341 | 1.7 | 2.6 | 0.00 | 0.00 | 0.00 | 70 | 1014.9 |
| 20260508033011 | 50 | 42 | 0.9 | 1.7 | 0.00 | 0.00 | 0.00 | 68 | 1014.9 |
| 20260508032511 | 50 | 285 | 0.0 | 0.9 | 0.00 | 0.00 | 0.00 | 67 | 1015.0 |
| 20260508032011 | 50 | 285 | 0.0 | 0.9 | 0.00 | 0.00 | 0.00 | 66 | 1015.0 |
| 20260508031518 | 50 | 285 | 0.0 | 0.9 | 0.00 | 0.00 | 0.00 | 66 | 1015.0 |
| 20260508031010 | 50 | 285 | 0.0 | 0.0 | 0.00 | 0.00 | 0.00 | 66 | 1015.0 |
| 20260508030511 | 51 | 285 | 0.0 | 0.0 | 0.00 | 0.00 | 0.00 | 66 | 1015.0 |
| 20260508030007 | 51 | 285 | 0.0 | 3.5 | 0.00 | 0.00 | 0.00 | 66 | 1014.9 |
| 20260508025508 | 51 | 285 | 0.9 | 4.3 | 0.00 | 0.00 | 0.00 | 65 | 1014.9 |
| 20260508025006 | 52 | 286 | 0.9 | 4.3 | 0.00 | 0.00 | 0.00 | 63 | 1014.8 |
| 20260508024506 | 52 | 284 | 0.9 | 4.3 | 0.00 | 0.00 | 0.00 | 62 | 1014.8 |
| 20260508024005 | 52 | 279 | 0.0 | 1.7 | 0.00 | 0.00 | 0.00 | 60 | 1014.7 |
| 20260508023505 | 53 | 279 | 0.0 | 1.7 | 0.00 | 0.00 | 0.00 | 59 | 1014.7 |
| 20260508023003 | 53 | 292 | 0.9 | 4.3 | 0.00 | 0.00 | 0.00 | 58 | 1014.6 |
| 20260508022502 | 53 | 292 | 1.7 | 4.3 | 0.00 | 0.00 | 0.00 | 57 | 1014.5 |
| 20260508022002 | 53 | 280 | 0.9 | 4.3 | 0.00 | 0.00 | 0.00 | 56 | 1014.5 |
| 20260508021502 | 53 | 277 | 0.9 | 3.5 | 0.00 | 0.00 | 0.00 | 55 | 1014.4 |
| 20260508021002 | 54 | 278 | 0.9 | 2.6 | 0.00 | 0.00 | 0.00 | 55 | 1014.3 |
| 20260508020502 | 54 | 280 | 0.9 | 3.5 | 0.00 | 0.00 | 0.00 | 54 | 1014.3 |
| 20260508020058 | 54 | 298 | 0.9 | 3.5 | 0.00 | 0.00 | 0.00 | 54 | 1014.3 |
| 20260508015558 | 54 | 300 | 0.9 | 1.7 | 0.00 | 0.00 | 0.00 | 53 | 1014.3 |
| 20260508015059 | 55 | 300 | 0.9 | 1.7 | 0.00 | 0.00 | 0.00 | 53 | 1014.2 |
| 20260508014558 | 55 | 301 | 0.9 | 3.5 | 0.00 | 0.00 | 0.00 | 53 | 1014.1 |
| 20260508014058 | 56 | 300 | 0.9 | 2.6 | 0.00 | 0.00 | 0.00 | 52 | 1014.0 |
| 20260508013557 | 56 | 300 | 0.0 | 3.5 | 0.00 | 0.00 | 0.00 | 51 | 1013.9 |
| 20260508013105 | 56 | 302 | 0.0 | 3.5 | 0.00 | 0.00 | 0.00 | 51 | 1013.8 |
| 20260508012556 | 57 | 303 | 0.9 | 4.3 | 0.00 | 0.00 | 0.00 | 50 | 1013.8 |
| 20260508012057 | 57 | 303 | 2.6 | 5.2 | 0.00 | 0.00 | 0.00 | 48 | 1013.6 |
| 20260508011557 | 57 | 308 | 3.5 | 5.2 | 0.00 | 0.00 | 0.00 | 46 | 1013.5 |
| 20260508011057 | 58 | 312 | 1.7 | 4.3 | 0.00 | 0.00 | 0.00 | 45 | 1013.5 |
| 20260508010557 | 58 | 309 | 2.6 | 5.2 | 0.00 | 0.00 | 0.00 | 44 | 1013.4 |
| 20260508010055 | 58 | 306 | 2.6 | 5.2 | 0.00 | 0.00 | 0.00 | 44 | 1013.3 |
| 20260508005555 | 59 | 302 | 3.5 | 5.2 | 0.00 | 0.00 | 0.00 | 43 | 1013.3 |
| 20260508005055 | 59 | 323 | 2.6 | 7.0 | 0.00 | 0.00 | 0.00 | 43 | 1013.3 |
| 20260508004555 | 59 | 323 | 4.3 | 7.0 | 0.00 | 0.00 | 0.00 | 42 | 1013.3 |
| 20260508004055 | 60 | 295 | 4.3 | 7.0 | 0.00 | 0.00 | 0.00 | 40 | 1013.3 |
| 20260508003554 | 60 | 298 | 1.7 | 7.0 | 0.00 | 0.00 | 0.00 | 40 | 1013.2 |
| 20260508003054 | 60 | 299 | 3.5 | 7.0 | 0.00 | 0.00 | 0.00 | 39 | 1013.1 |
| 20260508002553 | 60 | 272 | 2.6 | 7.0 | 0.00 | 0.00 | 0.00 | 38 | 1013.0 |
| 20260508002053 | 61 | 311 | 2.6 | 7.8 | 0.00 | 0.00 | 0.00 | 37 | 1013.1 |
| 20260508001553 | 61 | 311 | 4.3 | 8.7 | 0.00 | 0.00 | 0.00 | 37 | 1012.9 |
| 20260508001052 | 61 | 313 | 5.2 | 8.7 | 0.00 | 0.00 | 0.00 | 36 | 1012.9 |
| 20260508000553 | 61 | 314 | 3.5 | 11.3 | 0.00 | 0.00 | 0.00 | 36 | 1012.8 |
| 20260508000041 | 62 | 333 | 6.1 | 12.2 | 0.00 | 0.00 | 0.00 | 35 | 1012.9 |
| 20260507235542 | 62 | 311 | 7.0 | 12.2 | 0.00 | 0.00 | 0.00 | 35 | 1012.7 |
| 20260507235041 | 62 | 315 | 7.0 | 10.4 | 0.00 | 0.00 | 0.00 | 34 | 1012.6 |
| 20260507234543 | 62 | 307 | 5.2 | 12.2 | 0.00 | 0.00 | 0.00 | 35 | 1012.7 |
| 20260507234040 | 63 | 318 | 7.8 | 13.0 | 0.00 | 0.00 | 0.00 | 34 | 1012.6 |
| 20260507233541 | 63 | 319 | 7.0 | 13.0 | 0.00 | 0.00 | 0.00 | 34 | 1012.5 |
| 20260507233041 | 63 | 329 | 5.2 | 8.7 | 0.00 | 0.00 | 0.00 | 34 | 1012.5 |
| 20260507232544 | 63 | 330 | 3.5 | 10.4 | 0.00 | 0.00 | 0.00 | 34 | 1012.5 |
| 20260507232040 | 63 | 313 | 7.0 | 13.9 | 0.00 | 0.00 | 0.00 | 33 | 1012.4 |
| 20260507231542 | 63 | 319 | 7.0 | 13.9 | 0.00 | 0.00 | 0.00 | 32 | 1012.4 |
| 20260507231040 | 64 | 311 | 7.0 | 13.0 | 0.00 | 0.00 | 0.00 | 32 | 1012.3 |
| 20260507230543 | 64 | 327 | 7.8 | 11.3 | 0.00 | 0.00 | 0.00 | 32 | 1012.4 |
| 20260507230041 | 64 | 289 | 7.8 | 10.4 | 0.00 | 0.00 | 0.00 | 32 | 1012.4 |
| 20260507225540 | 64 | 311 | 7.0 | 12.2 | 0.00 | 0.00 | 0.00 | 32 | 1012.4 |
| 20260507225040 | 64 | 309 | 7.0 | 17.4 | 0.00 | 0.00 | 0.00 | 33 | 1012.4 |
| 20260507224540 | 65 | 306 | 8.7 | 17.4 | 0.00 | 0.00 | 0.00 | 32 | 1012.4 |
| 20260507224039 | 65 | 329 | 7.8 | 12.2 | 0.00 | 0.00 | 0.00 | 33 | 1012.4 |
| 20260507223543 | 65 | 302 | 7.0 | 13.9 | 0.00 | 0.00 | 0.00 | 33 | 1012.3 |
| 20260507223040 | 65 | 274 | 8.7 | 13.9 | 0.00 | 0.00 | 0.00 | 32 | 1012.3 |
| 20260507222541 | 66 | 227 | 7.0 | 11.3 | 0.00 | 0.00 | 0.00 | 32 | 1012.3 |
| 20260507222039 | 66 | 290 | 7.0 | 11.3 | 0.00 | 0.00 | 0.00 | 32 | 1012.3 |
| 20260507221538 | 66 | 281 | 7.8 | 11.3 | 0.00 | 0.00 | 0.00 | 32 | 1012.2 |
| 20260507221038 | 66 | 310 | 5.2 | 9.6 | 0.00 | 0.00 | 0.00 | 33 | 1012.2 |
| 20260507220539 | 66 | 309 | 7.0 | 13.9 | 0.00 | 0.00 | 0.00 | 35 | 1012.1 |
| 20260507220040 | 66 | 355 | 7.0 | 13.9 | 0.00 | 0.00 | 0.00 | 35 | 1012.1 |
| 20260507215540 | 66 | 315 | 7.8 | 13.0 | 0.00 | 0.00 | 0.00 | 35 | 1012.0 |
| 20260507215038 | 66 | 292 | 7.0 | 16.5 | 0.00 | 0.00 | 0.00 | 34 | 1011.9 |
| 20260507214538 | 66 | 294 | 7.8 | 16.5 | 0.00 | 0.00 | 0.00 | 34 | 1012.0 |
| 20260507214039 | 66 | 329 | 5.2 | 15.6 | 0.00 | 0.00 | 0.00 | 35 | 1011.8 |
| 20260507213537 | 67 | 294 | 6.1 | 15.6 | 0.00 | 0.00 | 0.00 | 35 | 1011.9 |
| 20260507213040 | 0 | 0.0 | 0.0 | 0.00 | 0.00 | 0.00 | 1011.8 | ||
| 20260507212536 | 0 | 0.0 | 0.0 | 0.00 | 0.00 | 0.00 | 1011.7 | ||
| 20260507212034 | 0 | 0.0 | 0.0 | 0.00 | 0.00 | 0.00 | 1011.8 | ||
| 20260507211532 | 67 | 0.0 | 0.0 | 0.00 | 0.00 | 0.00 | 36 | 1011.6 | |
| 20260507211031 | 67 | 315 | 8.7 | 15.6 | 0.00 | 0.00 | 0.00 | 36 | 1011.7 |
| 20260507210533 | 67 | 315 | 8.7 | 15.6 | 0.00 | 0.00 | 0.00 | 36 | 1011.7 |
| 20260507210039 | 67 | 311 | 7.8 | 15.6 | 0.00 | 0.00 | 0.00 | 37 | 1011.7 |
| 20260507205538 | 66 | 340 | 7.0 | 13.9 | 0.00 | 0.00 | 0.00 | 38 | 1011.6 |
| 20260507205040 | 65 | 298 | 6.1 | 17.4 | 0.00 | 0.00 | 0.00 | 38 | 1011.5 |
| 20260507204538 | 65 | 355 | 8.7 | 17.4 | 0.00 | 0.00 | 0.00 | 38 | 1011.5 |
| 20260507204037 | 66 | 345 | 8.7 | 15.6 | 0.00 | 0.00 | 0.00 | 38 | 1011.5 |
| 20260507203537 | 65 | 5 | 6.1 | 13.0 | 0.00 | 0.00 | 0.00 | 39 | 1011.5 |
| 20260507203036 | 66 | 343 | 7.0 | 16.5 | 0.00 | 0.00 | 0.00 | 38 | 1011.4 |
| 20260507202536 | 66 | 300 | 7.0 | 16.5 | 0.00 | 0.00 | 0.00 | 38 | 1011.5 |
| 20260507202036 | 67 | 291 | 6.1 | 12.2 | 0.00 | 0.00 | 0.00 | 37 | 1011.4 |
| 20260507201539 | 67 | 341 | 7.0 | 12.2 | 0.00 | 0.00 | 0.00 | 37 | 1011.4 |
| 20260507201035 | 67 | 324 | 5.2 | 11.3 | 0.00 | 0.00 | 0.00 | 38 | 1011.5 |
| 20260507200537 | 67 | 300 | 5.2 | 13.0 | 0.00 | 0.00 | 0.00 | 38 | 1011.5 |
| 20260507200043 | 67 | 285 | 7.0 | 13.0 | 0.00 | 0.00 | 0.00 | 38 | 1011.5 |
| 20260507200038 | 67 | 5 | 7.8 | 13.0 | 0.00 | 0.00 | 0.00 | 38 | 1011.5 |
| 20260507195535 | 67 | 304 | 7.0 | 13.9 | 0.00 | 0.00 | 0.00 | 37 | 1011.5 |
| 20260507195032 | 67 | 259 | 6.1 | 13.9 | 0.00 | 0.00 | 0.00 | 36 | 1011.6 |
| 20260507194542 | 67 | 300 | 5.2 | 13.0 | 0.00 | 0.00 | 0.00 | 37 | 1011.6 |
| 20260507194031 | 68 | 259 | 6.1 | 13.0 | 0.00 | 0.00 | 0.00 | 36 | 1011.5 |
| 20260507193531 | 67 | 283 | 7.0 | 13.0 | 0.00 | 0.00 | 0.00 | 37 | 1011.5 |
| 20260507193032 | 67 | 221 | 6.1 | 11.3 | 0.00 | 0.00 | 0.00 | 36 | 1011.5 |
| 20260507192530 | 67 | 262 | 3.5 | 11.3 | 0.00 | 0.00 | 0.00 | 38 | 1011.7 |
| 20260507192028 | 66 | 306 | 6.1 | 12.2 | 0.00 | 0.00 | 0.00 | 39 | 1011.7 |
| 20260507191533 | 66 | 292 | 6.1 | 12.2 | 0.00 | 0.00 | 0.00 | 39 | 1011.7 |
| 20260507191028 | 65 | 318 | 5.2 | 10.4 | 0.00 | 0.00 | 0.00 | 41 | 1011.7 |
| 20260507190527 | 64 | 311 | 5.2 | 12.2 | 0.00 | 0.00 | 0.00 | 42 | 1011.9 |
| 20260507190029 | 64 | 323 | 6.1 | 12.2 | 0.00 | 0.00 | 0.00 | 42 | 1012.0 |
| 20260507185523 | 64 | 294 | 3.5 | 10.4 | 0.00 | 0.00 | 0.00 | 42 | 1012.1 |
| 20260507185023 | 65 | 237 | 5.2 | 12.2 | 0.00 | 0.00 | 0.00 | 41 | 1012.2 |
| 20260507184523 | 65 | 281 | 7.8 | 13.0 | 0.00 | 0.00 | 0.00 | 43 | 1012.2 |
| 20260507184024 | 65 | 355 | 5.2 | 10.4 | 0.00 | 0.00 | 0.00 | 41 | 1012.1 |
| 20260507183522 | 65 | 341 | 5.2 | 10.4 | 0.00 | 0.00 | 0.00 | 42 | 1012.3 |
| 20260507183034 | 65 | 288 | 5.2 | 11.3 | 0.00 | 0.00 | 0.00 | 43 | 1012.3 |
| 20260507182521 | 65 | 308 | 6.1 | 13.0 | 0.00 | 0.00 | 0.00 | 43 | 1012.4 |
| 20260507182021 | 66 | 277 | 7.8 | 13.0 | 0.00 | 0.00 | 0.00 | 42 | 1012.5 |
| 20260507181520 | 67 | 298 | 5.2 | 10.4 | 0.00 | 0.00 | 0.00 | 41 | 1012.4 |
| 20260507181020 | 67 | 312 | 6.1 | 9.6 | 0.00 | 0.00 | 0.00 | 42 | 1012.4 |
| 20260507180520 | 65 | 255 | 4.3 | 11.3 | 0.00 | 0.00 | 0.00 | 43 | 1012.4 |
| 20260507180019 | 65 | 278 | 7.0 | 11.3 | 0.00 | 0.00 | 0.00 | 42 | 1012.4 |
| 20260507175517 | 65 | 278 | 5.2 | 15.6 | 0.00 | 0.00 | 0.00 | 43 | 1012.5 |
| 20260507175015 | 66 | 267 | 4.3 | 15.6 | 0.00 | 0.00 | 0.00 | 42 | 1012.5 |
| 20260507174515 | 66 | 292 | 7.0 | 13.9 | 0.00 | 0.00 | 0.00 | 42 | 1012.6 |
| 20260507174015 | 65 | 314 | 6.1 | 13.0 | 0.00 | 0.00 | 0.00 | 42 | 1012.7 |
| 20260507173514 | 65 | 248 | 7.0 | 13.0 | 0.00 | 0.00 | 0.00 | 42 | 1012.7 |
| 20260507173014 | 64 | 277 | 4.3 | 11.3 | 0.00 | 0.00 | 0.00 | 43 | 1012.8 |
| 20260507172514 | 64 | 250 | 4.3 | 10.4 | 0.00 | 0.00 | 0.00 | 43 | 1012.9 |
| 20260507172013 | 66 | 355 | 7.8 | 10.4 | 0.00 | 0.00 | 0.00 | 40 | 1012.8 |
| 20260507171514 | 66 | 241 | 2.6 | 9.6 | 0.00 | 0.00 | 0.00 | 42 | 1012.8 |
| 20260507171011 | 66 | 227 | 6.1 | 10.4 | 0.00 | 0.00 | 0.00 | 42 | 1012.9 |
| 20260507170510 | 65 | 291 | 4.3 | 13.9 | 0.00 | 0.00 | 0.00 | 43 | 1013.0 |
| 20260507170009 | 65 | 290 | 7.8 | 13.9 | 0.00 | 0.00 | 0.00 | 44 | 1013.0 |
| 20260507165505 | 65 | 304 | 4.3 | 13.0 | 0.00 | 0.00 | 0.00 | 44 | 1013.1 |
| 20260507165005 | 64 | 249 | 7.0 | 15.6 | 0.00 | 0.00 | 0.00 | 45 | 1013.2 |
| 20260507164507 | 64 | 286 | 7.0 | 12.2 | 0.00 | 0.00 | 0.00 | 46 | 1013.1 |
| 20260507164004 | 63 | 327 | 5.2 | 9.6 | 0.00 | 0.00 | 0.00 | 47 | 1013.2 |
| 20260507163506 | 64 | 319 | 6.1 | 10.4 | 0.00 | 0.00 | 0.00 | 46 | 1013.1 |
| 20260507163003 | 64 | 253 | 4.3 | 11.3 | 0.00 | 0.00 | 0.00 | 46 | 1013.2 |
| 20260507162502 | 64 | 283 | 5.2 | 9.6 | 0.00 | 0.00 | 0.00 | 46 | 1013.2 |
| 20260507162004 | 64 | 315 | 5.2 | 9.6 | 0.00 | 0.00 | 0.00 | 47 | 1013.3 |
| 20260507161501 | 64 | 324 | 3.5 | 10.4 | 0.00 | 0.00 | 0.00 | 48 | 1013.3 |
| 20260507161001 | 64 | 324 | 6.1 | 10.4 | 0.00 | 0.00 | 0.00 | 49 | 1013.4 |
| 20260507160504 | 63 | 289 | 6.1 | 10.4 | 0.00 | 0.00 | 0.00 | 49 | 1013.4 |
| 20260507160003 | 64 | 282 | 5.2 | 8.7 | 0.00 | 0.00 | 0.00 | 49 | 1013.4 |
| 20260507155559 | 64 | 242 | 5.2 | 8.7 | 0.00 | 0.00 | 0.00 | 49 | 1013.4 |
| 20260507155028 | 63 | 301 | 4.3 | 8.7 | 0.00 | 0.00 | 0.00 | 50 | 1013.4 |
| 20260507154529 | 63 | 256 | 5.2 | 9.6 | 0.00 | 0.00 | 0.00 | 49 | 1013.4 |
| 20260507154028 | 63 | 311 | 2.6 | 9.6 | 0.00 | 0.00 | 0.00 | 50 | 1013.5 |
| 20260507153527 | 63 | 346 | 7.0 | 8.7 | 0.00 | 0.00 | 0.00 | 50 | 1013.5 |
| 20260507153027 | 63 | 333 | 1.7 | 7.8 | 0.00 | 0.00 | 0.00 | 50 | 1013.5 |
| 20260507152525 | 63 | 229 | 4.3 | 9.6 | 0.00 | 0.00 | 0.00 | 51 | 1013.5 |
| 20260507152021 | 62 | 310 | 5.2 | 9.6 | 0.00 | 0.00 | 0.00 | 52 | 1013.5 |